Regional Weather Roundup
Issued by NWS

Home | Current Version | Previous Version | Text Only | Print | Product List | Glossary Off
Versions: 1 2 3 4 5 6 7 8 9 10 11 12 13 14 15 16 17 18 19 20 21 22 23 24 25 26 27 28 29 30 31 32 33 34 35 36 37 38 39 40 41 42 43 44 45 46 47 48 49 50

000
ASUS43 KDTX 300101
RWRMI
MICHIGAN HOURLY REGIONAL WEATHER ROUNDUP
NATIONAL WEATHER SERVICE DETROIT/PONTIAC MI
900 PM EDT FRI MAY 29 2015

NOTE: "FAIR" INDICATES FEW OR NO CLOUDS BELOW 12,000 FEET WITH NO
SIGNIFICANT WEATHER AND/OR OBSTRUCTION TO VISIBILITY.

MIZ047>049-052>055-059>063-066>070-074>076-081>083-300200-
SOUTHEAST LOWER MICHIGAN

CITY           SKY/WX    TMP DP  RH WIND       PRES   REMARKS
ADRIAN         PTCLDY    78  64  61 SW10      29.99S
ALMA           MOCLDY    71  68  90 SE3       29.94F
ANN ARBOR      PTCLDY    74  66  76 SE5       29.98S
BAD AXE        MOCLDY    75  65  70 S13       29.97R
CARO           HVY RAIN  65  62  90 CALM      29.98R
DETROIT CITY   CLEAR     75  65  70 S8        29.99S
DETROIT        MOCLDY    73  64  73 SE9       30.00R
FLINT          RAIN      71  64  78 W30G39    29.97R
GROSSE ILE     PTCLDY    72  64  78 SE10      29.98S
HILLSDALE      PTCLDY    78  63  59 S6        29.99S
HOWELL         MOCLDY    79  61  54 S7        29.97S

CITY           SKY/WX    TMP DP  RH WIND       PRES   REMARKS
JACKSON        PTCLDY    78  62  57 S9        29.97S
LAMBERTVILLE   PTCLDY    79  63  57 S8        30.00S
LANSING        MOCLDY    71  67  87 SE5       29.95F
LAPEER         FAIR      75  65  71 S3        29.98R
MASON          MOCLDY    71  65  83 CALM      29.96S
MONROE         PTCLDY    72  66  83 SE6       29.98S
MT. CLEMENS    CLEAR     70  64  83 S8        29.98S
PONTIAC        PTCLDY    76  66  71 S10       29.98R
PORT HOPE        N/A     76  66  71 S6        29.94R
PORT HURON     PTCLDY    73  64  73 S6        29.99S
TRI CITIES     CLOUDY    72  68  87 SE6       29.96R
MIDLAND        MOCLDY    72  69  92 SE5       29.94S
TROY           CLEAR     77  67  71 S5        30.01R
SAGINAW HB     CLOUDY    68  68 100 SE6       29.95F
$$
MIZ043>046-050>051-056>058-064>065-071>073-077>080-300200-
SOUTHWEST LOWER MICHIGAN

CITY           SKY/WX    TMP DP  RH WIND       PRES   REMARKS
BATTLE CREEK   PTCLDY    76  64  66 S10       29.95F
BENTON HARBOR  MOCLDY    71  65  81 CALM      29.92S
BIG RAPIDS     CLOUDY    69  66  88 SE5       29.91F
COLDWATER      MOCLDY    78  61  55 S6        29.96F
FREMONT        MOCLDY    71  67  85 S6        29.89F
HOLLAND        LGT RAIN  75  70  84 S9G16     29.93R
GRAND RAPIDS   MOCLDY    72  69  90 SE6       29.92F
IONIA          FAIR      72  68  89 SE6       29.92F
KALAMAZOO      PTCLDY    77  64  64 S8        29.93F
LUDINGTON      HVY RAIN  69  66  91 S9        29.90F
MARSHALL       PTCLDY    79  63  57 S6        29.95F
MOUNT PLEASANT MOCLDY    72  68  87 E3        29.92F
MUSKEGON       CLOUDY    75  68  78 SE8       29.90F
SOUTH HAVEN    CLOUDY    69  67  92 CALM      29.92F
$$
MIZ016>042-300200-
NORTHERN LOWER MICHIGAN

CITY           SKY/WX    TMP DP  RH WIND       PRES   REMARKS
ALPENA         LGT RAIN  63  61  93 S5        29.94R FOG
BEAVER ISLAND  CLOUDY    65  62  91 SW13G20   29.89S
CADILLAC       CLOUDY    70  64  80 S7        29.92F
CHARLEVOIX     CLOUDY    65  61  88 W3        29.92S
FRANKFORT      LGT RAIN  67  58  73 S8        29.88F
GAYLORD        CLOUDY    67  67 100 S6        29.92F
GRAYLING       CLOUDY    66  64  94 SE5       29.93F
HARBOR SPRINGS CLOUDY    68  62  80 CALM      29.89S
HOUGHTON LAKE  MOCLDY    68  64  87 CALM      29.93F
MANISTEE       CLOUDY    64  59  82 CALM      29.90F
OSCODA         LGT RAIN  70  67  93 SW8       29.94R
PELLSTON       CLOUDY    73  65  75 S3        29.89S
ROGERS CITY    LGT RAIN  67  65  92 SW9       29.94R
TRAVERSE CITY  CLOUDY    75  65  70 CALM      29.86F
$$
MIZ007>008-015-300200-
EASTERN UPPER MICHIGAN

CITY           SKY/WX    TMP DP  RH WIND       PRES   REMARKS
KINROSS        CLOUDY    66  64  94 S7        29.88S
MACKINAC ISLAN CLOUDY    69  64  85 SE5       29.88S
NEWBERRY       CLOUDY    64  61  92 SW13G21   29.89R FOG
S. S. MARIE    CLOUDY    63  58  83 SE3       29.87S
$$
MIZ004>006-011>014-085-300200-
CENTRAL UPPER MICHIGAN

CITY           SKY/WX    TMP DP  RH WIND       PRES   REMARKS
MANISTIQUE     CLOUDY    54  52  94 CALM      29.88S FOG
ESCANABA       CLOUDY    64  61  88 CALM      29.88R
MENOMINEE      CLOUDY    70  63  78 NW3       29.85R
SAWYER-GWINN   FOG       63  61  94 E7        29.90R VSB 1/2
$$
MIZ001>003-009>011-084-300200-
WESTERN UPPER MICHIGAN

CITY           SKY/WX    TMP DP  RH WIND       PRES   REMARKS
IRON MOUNTAIN  LGT RAIN  65  61  87 N14       29.89R FOG
HOUGHTON       CLOUDY    52  50  93 N8        29.94R FOG
COPPER HARBOR    N/A     50  48  93 N16       29.93R
IRONWOOD       CLOUDY    54  54 100 N5        29.95S
$$

ABBREVIATIONS USED IN REMARKS
   TC - TEMPERATURE IN CELSIUS
  WCI - WIND CHILL INDEX
   HX - HEAT INDEX
  VSB - VISIBILITY



USA.gov is the U.S. government's official web portal to all federal, state and local government web resources and services.